sat.trackr.live / text

‹ back to catalog

2024-024B

NORAD 58918 · 2024-024B

PAYLOAD ACTIVE UNKNOWN

§ Identity

Operator
Country
PRC
Launch date
2024-02-03
Launch site
SCSLA
Launch vehicle
Mass (kg)
RCS (m²)

External: N2YO · Heavens-Above · Gunter

§ Orbital elements

Epoch: 2026-05-25T04:35:13.771968Z

Period
94.65 min
Inclination
97.3075°
Eccentricity
0.0016923
Mean motion
15.21370777 rev/d
Perigee alt
490.1 km
Apogee alt
513.3 km
Semi-major
6,879.8 km
B*
3.5130e-4
RAAN
212.2425°
Arg perigee
211.2223°
Mean anomaly
148.8009°
Rev number
12,785

§ Raw data

2024-024B1 58918U 24024B   26145.19113162  .00007838  00000+0  35130-3 0  99952 58918  97.3075 212.2425 0016923 211.2223 148.8009 15.21370777127859

JSON: /api/v1/satellites/58918 · /tle

For live sub-satellite position, see the globe view (requires WebGL).

§ Visibility from observer

Set your observer location to see the next 7 days of passes ≥ 10°. The values pass through the URL so the page stays shareable.

No JS? Fill the form by hand. The geolocation button needs JavaScript.